Location: St. Louis
(38.6270°N, 90.1994°W)
Time: 07:16:38
(UTC-06:00)

Transit 2A - Pass Details

Date: 06 December 2021
Orbit: 591 x 967 km, 66.7° (Epoch: 20 January)

Event Time Altitude Azimuth Distance (km) Brightness Sun altitude
Rises 23:16:53 0° 213° (SSW) 3,247 - -72.3°
Reaches altitude 10° 23:19:11 10° 216° (SW) 2,379 - -72.5°
Maximum altitude 23:24:42 71° 300° (WNW) 916 - -73.0°
Drops below altitude 10° 23:30:49 10° 25° (NNE) 2,624 - -73.4°
Sets 23:33:28 0° 27° (NNE) 3,607 - -73.5°
